• In Netherlands
  • List of Countries
  • For 7 days
  • Water Temperature
  • Satellite Maps
  • Weather Map
  • Weather Widgets
  • user-avatar
    Login

    Hourly Weather Djelfa

    Today, 21 July, Friday

    Time Temperature Precipitation Wind Pressure Humidity
    00:00 +31°C° 0 mm 3 mps 665 mmHg 25%
    01:00 +30°C° 0.1 mm 3 mps 665 mmHg 27%
    02:00 +30°C° 0.1 mm 3 mps 664 mmHg 29%
    03:00 +29°C° 0.1 mm 3 mps 664 mmHg 30%
    04:00 +29°C° 0.2 mm 3 mps 664 mmHg 31%
    05:00 +29°C° 0.2 mm 3 mps 665 mmHg 31%
    06:00 +29°C° 0.2 mm 2 mps 665 mmHg 32%
    07:00 +31°C° 0.1 mm 3 mps 665 mmHg 27%
    08:00 +33°C° 0.1 mm 4 mps 666 mmHg 22%
    09:00 +35°C° 0.1 mm 5 mps 666 mmHg 18%
    10:00 +38°C° 0.1 mm 6 mps 667 mmHg 15%
    11:00 +39°C° 0.1 mm 7 mps 667 mmHg 13%
    12:00 +42°C° 0.1 mm 9 mps 667 mmHg 11%
    13:00 +41°C° 0 mm 8 mps 667 mmHg 11%
    14:00 +40°C° 0 mm 8 mps 667 mmHg 11%
    15:00 +40°C° 0 mm 8 mps 666 mmHg 11%
    16:00 +40°C° 0 mm 7 mps 666 mmHg 12%
    17:00 +39°C° 0 mm 6 mps 666 mmHg 13%
    18:00 +39°C° 0 mm 6 mps 666 mmHg 13%
    19:00 +36°C° 0 mm 5 mps 666 mmHg 16%
    20:00 +35°C° 0 mm 3 mps 667 mmHg 20%
    21:00 +34°C° 0 mm 2 mps 667 mmHg 23%
    22:00 +33°C° 0 mm 3 mps 667 mmHg 23%
    23:00 +31°C° 0 mm 3 mps 667 mmHg 23%

    Tomorrow, 22 July, Saturday

    Time Temperature Precipitation Wind Pressure Humidity
    00:00 +31°C° 0 mm 3 mps 666 mmHg 23%
    01:00 +30°C° 0.1 mm 3 mps 666 mmHg 24%
    02:00 +30°C° 0.1 mm 3 mps 666 mmHg 26%
    03:00 +29°C° 0.1 mm 3 mps 666 mmHg 27%
    04:00 +29°C° 0.1 mm 3 mps 666 mmHg 26%
    05:00 +30°C° 0.1 mm 4 mps 667 mmHg 25%
    06:00 +30°C° 0.1 mm 4 mps 667 mmHg 25%
    07:00 +33°C° 0 mm 6 mps 668 mmHg 21%
    08:00 +35°C° 0 mm 7 mps 668 mmHg 18%
    09:00 +38°C° 0 mm 9 mps 669 mmHg 14%
    10:00 +39°C° 0 mm 9 mps 669 mmHg 13%
    11:00 +42°C° 0 mm 9 mps 669 mmHg 12%
    12:00 +43°C° 0 mm 9 mps 670 mmHg 10%
    13:00 +43°C° 0 mm 8 mps 669 mmHg 10%
    14:00 +43°C° 0 mm 8 mps 669 mmHg 9%
    15:00 +44°C° 0 mm 7 mps 669 mmHg 9%
    16:00 +43°C° 0 mm 7 mps 669 mmHg 9%
    17:00 +43°C° 0 mm 7 mps 669 mmHg 9%
    18:00 +41°C° 0 mm 6 mps 669 mmHg 10%
    19:00 +40°C° 0 mm 6 mps 669 mmHg 11%
    20:00 +39°C° 0 mm 5 mps 669 mmHg 12%
    21:00 +36°C° 0 mm 5 mps 669 mmHg 13%
    22:00 +36°C° 0 mm 5 mps 669 mmHg 13%
    23:00 +35°C° 0 mm 4 mps 669 mmHg 14%

    Day after tomorrow, 23 July, Sunday

    Time Temperature Precipitation Wind Pressure Humidity
    00:00 +34°C° 0 mm 4 mps 669 mmHg 15%
    01:00 +34°C° 0 mm 4 mps 669 mmHg 16%
    02:00 +33°C° 0 mm 4 mps 669 mmHg 18%
    03:00 +32°C° 0 mm 5 mps 669 mmHg 19%
    04:00 +32°C° 0 mm 4 mps 669 mmHg 19%
    05:00 +32°C° 0 mm 4 mps 669 mmHg 20%
    06:00 +32°C° 0 mm 4 mps 669 mmHg 20%
    07:00 +34°C° 0 mm 6 mps 670 mmHg 18%
    08:00 +36°C° 0 mm 7 mps 671 mmHg 16%
    09:00 +39°C° 0 mm 9 mps 671 mmHg 14%
    10:00 +40°C° 0 mm 8 mps 671 mmHg 13%
    11:00 +41°C° 0 mm 8 mps 671 mmHg 12%
    12:00 +43°C° 0 mm 8 mps 671 mmHg 11%
    13:00 +43°C° 0 mm 8 mps 671 mmHg 10%
    14:00 +43°C° 0 mm 7 mps 671 mmHg 10%
    15:00 +43°C° 0 mm 7 mps 670 mmHg 10%
    16:00 +43°C° 0 mm 7 mps 670 mmHg 10%
    17:00 +41°C° 0 mm 6 mps 670 mmHg 10%
    18:00 +40°C° 0 mm 6 mps 670 mmHg 11%
    19:00 +40°C° 0 mm 5 mps 670 mmHg 12%
    20:00 +38°C° 0 mm 4 mps 670 mmHg 12%
    21:00 +37°C° 0 mm 3 mps 671 mmHg 13%
    22:00 +36°C° 0 mm 4 mps 671 mmHg 16%
    23:00 +35°C° 0 mm 4 mps 670 mmHg 18%

    24 July, Monday

    Time Temperature Precipitation Wind Pressure Humidity
    00:00 +34°C° 0 mm 5 mps 670 mmHg 20%
    01:00 +34°C° 0 mm 4 mps 670 mmHg 22%
    02:00 +33°C° 0 mm 3 mps 669 mmHg 23%
    03:00 +31°C° 0 mm 2 mps 669 mmHg 24%
    04:00 +31°C° 0 mm 2 mps 669 mmHg 24%
    05:00 +31°C° 0 mm 1 mps 669 mmHg 24%
    06:00 +31°C° 0 mm 1 mps 669 mmHg 24%
    07:00 +34°C° 0 mm 2 mps 669 mmHg 22%
    08:00 +35°C° 0 mm 3 mps 670 mmHg 19%
    09:00 +37°C° 0 mm 4 mps 670 mmHg 16%
    10:00 +39°C° 0 mm 5 mps 670 mmHg 14%
    11:00 +40°C° 0 mm 6 mps 670 mmHg 13%
    12:00 +41°C° 0 mm 7 mps 669 mmHg 11%
    13:00 +41°C° 0 mm 7 mps 669 mmHg 11%
    14:00 +40°C° 0 mm 8 mps 669 mmHg 11%
    15:00 +40°C° 0 mm 8 mps 668 mmHg 11%
    16:00 +40°C° 0 mm 7 mps 668 mmHg 12%
    17:00 +39°C° 0 mm 7 mps 668 mmHg 13%
    18:00 +39°C° 0 mm 6 mps 668 mmHg 14%
    19:00 +37°C° 0 mm 5 mps 668 mmHg 19%
    20:00 +35°C° 0 mm 4 mps 668 mmHg 23%
    21:00 +34°C° 0 mm 3 mps 668 mmHg 27%
    22:00 +33°C° 0 mm 3 mps 667 mmHg 31%
    23:00 +31°C° 0 mm 2 mps 667 mmHg 35%

    25 July, Tuesday

    Time Temperature Precipitation Wind Pressure Humidity
    00:00 +30°C° 0 mm 2 mps 667 mmHg 39%
    01:00 +30°C° 0 mm 3 mps 667 mmHg 41%
    02:00 +29°C° 0 mm 4 mps 666 mmHg 43%
    03:00 +29°C° 0 mm 5 mps 666 mmHg 44%
    04:00 +29°C° 0 mm 4 mps 666 mmHg 41%
    05:00 +29°C° 0 mm 3 mps 666 mmHg 39%
    06:00 +29°C° 0 mm 2 mps 666 mmHg 36%
    07:00 +30°C° 0 mm 2 mps 667 mmHg 33%
    08:00 +31°C° 0 mm 3 mps 667 mmHg 29%
    09:00 +33°C° 0 mm 3 mps 667 mmHg 26%
    10:00 +34°C° 0 mm 3 mps 667 mmHg 23%
    11:00 +35°C° 0 mm 4 mps 667 mmHg 21%
    12:00 +36°C° 0 mm 4 mps 667 mmHg 18%
    13:00 +37°C° 0 mm 5 mps 667 mmHg 17%
    14:00 +39°C° 0 mm 6 mps 666 mmHg 15%
    15:00 +39°C° 0 mm 6 mps 666 mmHg 14%
    16:00 +39°C° 0 mm 6 mps 666 mmHg 13%
    17:00 +39°C° 0 mm 7 mps 666 mmHg 12%
    18:00 +38°C° 0 mm 7 mps 666 mmHg 12%
    19:00 +36°C° 0 mm 6 mps 666 mmHg 14%
    20:00 +34°C° 0 mm 5 mps 666 mmHg 16%
    21:00 +33°C° 0 mm 4 mps 666 mmHg 19%
    22:00 +31°C° 0.1 mm 3 mps 666 mmHg 23%
    23:00 +30°C° 0.1 mm 2 mps 666 mmHg 27%

    26 July, Wednesday

    Time Temperature Precipitation Wind Pressure Humidity
    00:00 +29°C° 0.1 mm 1 mps 665 mmHg 31%
    01:00 +28°C° 0 mm 2 mps 665 mmHg 34%
    02:00 +28°C° 0 mm 2 mps 665 mmHg 36%
    03:00 +27°C° 0 mm 2 mps 665 mmHg 39%
    04:00 +27°C° 0 mm 2 mps 665 mmHg 40%
    05:00 +27°C° 0 mm 2 mps 665 mmHg 40%
    06:00 +27°C° 0 mm 2 mps 665 mmHg 41%
    07:00 +28°C° 0 mm 2 mps 666 mmHg 36%
    08:00 +29°C° 0 mm 2 mps 666 mmHg 31%
    09:00 +30°C° 0 mm 1 mps 667 mmHg 26%
    10:00 +32°C° 0 mm 2 mps 667 mmHg 23%
    11:00 +34°C° 0 mm 2 mps 667 mmHg 19%
    12:00 +36°C° 0 mm 2 mps 667 mmHg 16%
    13:00 +36°C° 0 mm 4 mps 667 mmHg 14%
    14:00 +37°C° 0 mm 5 mps 667 mmHg 13%
    15:00 +39°C° 0 mm 6 mps 667 mmHg 12%
    16:00 +39°C° 0 mm 6 mps 666 mmHg 12%
    17:00 +37°C° 0 mm 5 mps 666 mmHg 12%
    18:00 +37°C° 0 mm 5 mps 666 mmHg 12%
    19:00 +36°C° 0 mm 5 mps 666 mmHg 15%
    20:00 +34°C° 0 mm 5 mps 667 mmHg 17%
    21:00 +33°C° 0 mm 4 mps 667 mmHg 19%
    22:00 +32°C° 0 mm 4 mps 667 mmHg 22%
    23:00 +30°C° 0 mm 3 mps 667 mmHg 26%
    Show more